National Weather Service United States Department of Commerce

Iowa Surface Observations

    
                        
190
ASUS43 KDMX 142206
RWRIA

WEATHER ROUNDUP FOR IOWA
NATIONAL WEATHER SERVICE DES MOINES IA
500 PM CDT SUN JUL 14 2024

NOTE: "FAIR" INDICATES FEW OR NO CLOUDS BELOW 12,000 FEET WITH NO
SIGNIFICANT WEATHER AND/OR OBSTRUCTIONS TO VISIBILITY.

* - THESE STATIONS ARE NOT NWS STATIONS...THUS NOT UNDER NWS
QUALITY CONTROL. THEY ALSO DO NOT REPORT WEATHER SUCH
AS PRECIPITATION OR FOG.

IAZ001>003-012>014-020>022-031>034-043>046-142300-
NORTHWEST IOWA

CITY SKY/WX TMP DP RH WIND PRES REMARKS
CARROLL * N/A N/A N/A N/A W14G20 29.89R
CHEROKEE * SUNNY 90 73 58 NW7 29.90S HX 98 TC 32
DENISON * SUNNY N/A N/A N/A W7 29.92S
LE MARS * SUNNY 90 70 51 W6 29.90S HX 95 TC 32
MAURICE * SUNNY 88 75 66 W6 29.89S HX 97 TC 31
SHELDON * SUNNY 88 75 66 N5 29.90S HX 97 TC 31
SIOUX CITY SUNNY 89 71 55 W7 29.90F HX 95 TC 32
SPENCER MOSUNNY 92 72 51 N8 29.90S HX 99 TC 33
STORM LAKE * SUNNY 88 77 70 W9 29.91F HX 100 TC 31
$$

IAZ055>058-069>071-079>083-090>094-142300-
SOUTHWEST IOWA

CITY SKY/WX TMP DP RH WIND PRES REMARKS
ATLANTIC * SUNNY 90 79 70 W8G14 29.89R HX 105 TC 32
AUDUBON * CLOUDY 90 79 70 W3 29.90S HX 105 TC 32
CLARINDA * SUNNY 90 77 66 SW9 29.91S HX 102 TC 32
COUNCIL BLFS * SUNNY 91 77 62 SW7 29.88S HX 105 TC 33
CRESTON * SUNNY 88 81 79 W13 29.90S HX 105 TC 31
HARLAN * MOSUNNY 93 79 62 NW9G16 29.90S HX 110 TC 34
LAMONI MOSUNNY 88 77 69 SW16 29.88S HX 100 TC 31
RED OAK * SUNNY 91 77 62 SW8 29.90S HX 105 TC 33
SHENANDOAH * SUNNY 91 77 62 SW12 29.88F HX 105 TC 33
$$

IAZ047>049-059>061-072>074-084-142300-
CENTRAL IOWA

CITY SKY/WX TMP DP RH WIND PRES REMARKS
AMES MOSUNNY 91 76 61 W12 29.85F HX 103 TC 33
ANKENY * MOSUNNY 91 77 62 W14 29.86S HX 105 TC 33
BOONE * MOSUNNY N/A N/A N/A W12G18 29.86R
CHARITON * MOSUNNY 91 77 62 SW16 29.87S HX 105 TC 33
DES MOINES MOSUNNY 92 75 57 W14 29.86S HX 103 TC 33
GRINNELL* PTSUNNY 90 77 64 SW12 29.88R HX 103 TC 32
KNOXVILLE * SUNNY 90 75 62 W16G22 29.86S HX 100 TC 32
MARSHALLTOWN MOSUNNY 90 77 65 SW9 29.85F HX 103 TC 32
NEWTON * MOSUNNY 90 79 70 W10G17 29.85S HX 105 TC 32
PELLA * SUNNY 91 75 61 SW15 29.86S HX 101 TC 33
$$

IAZ004>006-015-016-023>025-035-036-142300-
NORTH CENTRAL IOWA

CITY SKY/WX TMP DP RH WIND PRES REMARKS
ALGONA * SUNNY N/A N/A N/A N9 29.87S
CLARION * SUNNY N/A N/A N/A W10 29.86F
ESTHERVILLE SUNNY 90 72 55 N10 29.90R HX 97 TC 32
FORT DODGE * SUNNY 91 76 61 W6 29.88S HX 103 TC 33
MASON CITY MOSUNNY 88 77 69 NW8 29.88S HX 100 TC 31
FOREST CITY * PTSUNNY 88 75 66 N10 29.87S HX 97 TC 31
IOWA FALLS * MOSUNNY 92 75 59 W9 29.87S HX 103 TC 33
$$

IAZ007>011-017>019-026>030-037>042-050>054-066-142300-
NORTHEAST IOWA

CITY SKY/WX TMP DP RH WIND PRES REMARKS
CEDAR RAPIDS MOSUNNY 88 76 67 SW12 29.85R HX 99 TC 31
CHARLES CITY * MOSUNNY 86 77 74 NW7 29.86F HX 97 TC 30
CLINTON * PTSUNNY 89 79 72 S9 29.87F HX 104 TC 32
DECORAH * PTSUNNY 84 77 79 VRB6 29.86S HX 94 TC 29
DUBUQUE MOSUNNY 84 77 79 S6 29.87S HX 94 TC 29
MONTICELLO * PTSUNNY 90 79 70 SW8G16 29.84S HX 105 TC 32
OELWEIN * PTSUNNY 86 77 74 SW8 29.87S HX 97 TC 30
WATERLOO SUNNY 91 77 63 W8 29.84S HX 104 TC 33
$$

IAZ064-065-067-068-078-142300-
EAST CENTRAL IOWA

CITY SKY/WX TMP DP RH WIND PRES REMARKS
DAVENPORT MOSUNNY 89 78 70 S12G22 29.88S HX 103 TC 32
IOWA CITY PTSUNNY 90 75 61 SW8 29.85S HX 100 TC 32
MT. PLEASANT * MOSUNNY 90 75 62 SW12G18 29.86S HX 100 TC 32
MUSCATINE * MOSUNNY 91 79 66 S13 29.85S HX 107 TC 33
QUAD CITIES MOSUNNY 90 77 65 S13 29.85S HX 103 TC 32
$$

IAZ062-063-075>077-085>089-095>099-142300-
SOUTHEAST IOWA

CITY SKY/WX TMP DP RH WIND PRES REMARKS
BURLINGTON MOSUNNY 89 78 70 S14G24 29.86F HX 103 TC 32
FAIRFIELD * MOSUNNY 90 75 62 SW10G16 29.86R HX 100 TC 32
FORT MADISON * N/A 90 77 66 S16G23 29.86F HX 102 TC 32
KEOKUK * SUNNY 91 73 55 SW21G28 29.86F HX 100 TC 33
OSKALOOSA * MOSUNNY 92 77 61 SW14 29.86S HX 105 TC 33
OTTUMWA MOSUNNY 89 78 70 SW8 29.85R HX 103 TC 32
WASHINGTON * MOSUNNY 91 73 55 SW12G18 29.84S HX 100 TC 33
$$

ABBREVIATIONS USED IN REMARKS
TC - TEMPERATURES IN CELSIUS
WCI - WIND CHILL INDEX
HX - HEAT INDEX
VSB - VISIBILITY
$$




Road Conditions

Image Courtesy of the Iowa Environmental Mesonet

Midwest Surface Map

Midwest Surface Map

 

U.S. Surface Map

U.S. Surface Map

Iowa Weather Summary

    
                        
563
AWUS83 KDMX 140936
RWSDMX
IAZ004>007-015>017-023>028-033>039-044>050-057>062-070>075-081>086-
092>097-141345-

Weather Summary for Iowa
National Weather Service Des Moines IA
436 AM CDT Sun Jul 14 2024

Today:

Several storms were rumbling east over southern Iowa as of 4am with
additional storms dropping into northeast Iowa. Another area of
storms were trucking southeast across South Dakota with severe wind
gusts, though this area was showing signs of weakening. Back over
Iowa, it was warm and humid with temperatures in the low and middle
70s in most places with the dewpoint about the same. Winds were from a
southerly direction.

The storms over South Dakota will move into Iowa after 5am. It
remains to be seen if these storms will survive into Iowa, but if they
do they would track most likely into northwest Iowa. Beside the storm
chances this morning, it will be another hot day with highs into the
90s with the heat index ranging from around 95 degrees in northeast
Iowa to 110 degrees in southwest Iowa.

Tonight and beyond:

Another round of storms is possible tonight with the highest chances
for this being over northern Iowa. High heat and humidity will
continue through Monday before temperatures lower to around 80 degrees
by midweek. This change in conditions will be the result of a
boundary that will bring a stormier period Monday afternoon into Monday
night. Strong to severe storms will be possible during this period.

$$

Ansorge


River Summary

    
                        
509
SRUS43 KDMX 142138
RVADMX
IAC001-003-007-009-013-015-017-023-025-027-029-033-039-047-049-051-053-
063-069-073-075-077-079-081-083-091-099-109-117-121-123-125-127-135-147-
151-153-157-159-161-169-171-173-175-179-181-185-187-189-195-197-152145-

Hydrologic Summary
National Weather Service Des Moines IA
437 PM CDT Sun Jul 14 2024

Hourly river stages. Time is in Central Time. For the latest river forecasts,
flood warnings and flood statements refer to weather.gov/desmoines.

Refer to the end of this product for an explanation of the columns.

Cur Obs Flood 6hr 24hr Obs
Location FS Stg Category Chg Chg Date/Time

...Mississippi River Basin...

.Wapsipinicon River Basin...

Wapsipinicon River
Tripoli 15.0 9.53 Non-Flood -0.07 -0.28 0714/1545

.Iowa River Basin...

West Main Drainage Ditch 1-2
Britt

Iowa River
Rowan 12.5 7.12 Non-Flood -0.10 -0.52 0714/1500
Steamboat Rock 11.0 7.32 Non-Flood -0.05 -0.37 0714/1500
Marshalltown 19.0 13.83 Non-Flood -0.13 -0.71 0714/1500
Tama Hwy E49 12.5 8.10 Non-Flood -0.24 -1.03 0714/1500
Tama US 63 20.0 13.52 Non-Flood -0.17 -0.90 0714/1600
Chelsea

South Fork Iowa River
Blairsburg 4.63 -0.01 -0.07 0714/1500
New Providence 3.61 -0.05 -0.19 0714/1445

Timber Creek
Marshalltown 14.0 3.87 Non-Flood -0.05 -0.15 0714/1500

Richland Creek
Haven 11.52 0.00 -0.05 0714/1500

Stein Creek
Clutier 67.16 -0.03 -0.11 0714/1530

Salt Creek
Elberon 16.0 7.67 Non-Flood -0.06 -0.36 0714/1500

Walnut Creek
Hartwick 14.0 1.60 Non-Flood 0.00 -0.06 0714/1500

Deer Creek
Toledo 5.21 -0.03 -0.17 0714/1600

Deep River
Deep River 70.57 3.66 3.62 0714/1515

.Cedar River Basin...

Cedar River
Waverly 12.0 5.13 Non-Flood 0.01 0.00 0714/1515
Janesville 13.0 3.55 Non-Flood 0.05 -0.12 0714/1545
Cedar Falls 89.0 84.63 Non-Flood -0.19 -0.73 0714/1445
Waterloo 13.0 8.47 Non-Flood -0.05 -0.36 0714/1500

West Fork Cedar River
Kesley
Kesley Hickory Ave--IFC 947.10 -0.02 -0.38 0714/1600
Finchford 17.0 9.97 Non-Flood -0.14 -0.68 0714/1545

Spring Creek (North Central Iowa)
Mason City US 65 81.13 -0.03 -0.07 0714/1545

Winnebago River
Mason City 10.0 7.32 Non-Flood -0.04 -0.21 0714/1530
Rockford

Clear Lake
Clear Lake 5.22 0.04 0.03 0714/1500

Willow Creek
Mason City US 18 Bus 86.93 -0.02 -0.11 0714/1445

Shell Rock River
Northwood
Nora Springs
Rockford Foothill Ave--IFC 972.91 Record 0.04 -0.31 0714/1600
Marble Rock 4.0
Marble Rock 290th St--IFC 950.89 -0.17 -0.36 0714/1545
Shell Rock 12.0 10.44 Non-Flood -0.06 -0.22 0714/1445

Beaver Creek (Northeast Iowa)
New Hartford 12.5 3.75 Non-Flood -0.06 -0.19 0714/1500

Black Hawk Creek
Hudson 14.0 6.67 Non-Flood -0.02 -0.14 0714/1445

Wolf Creek
Dysart 12.0 3.61 Non-Flood -0.03 -0.13 0714/1515

.Skunk River Basin...

Mud Lake Drainage Ditch 71 (North Central Iowa)
Jewell 81.03 -0.01 -0.08 0714/1515

Keigley Branch (Central Iowa)
Story City 82.71 -0.02 -0.07 0714/1530

South Skunk River
Randall Hwy R61--IFC 975.16 0.06 -0.10 0714/1600
Ames Hwy E18 2.18 -0.05 -0.17 0714/1500
Ames McFarland Park 180th 2.06 -0.04 -0.14 0714/1500
Ames W Riverside Rd 12.5 3.82 Non-Flood -0.01 -0.07 0714/1500
Ames E 13th St--IFC 878.19 -0.04 -0.16 0714/1545
Ames US 30 21.5 10.86 Non-Flood -0.03 -0.13 0714/1500
Colfax 18.0 8.58 Non-Flood -0.03 -0.15 0714/1545
Oskaloosa 24.5 11.00 Non-Flood -0.07 -0.32 0714/1530

Ioway Creek
Story City 120th St--IFC 970.60 -0.02 -0.04 0714/1545
Ames Hwy E18
Gilbert 160th St--IFC 928.95 0.00 -0.05 0714/1515
Ames Cameron School Rd 1.26 0.00 -0.04 0714/1500
Ames Stange Rd--IFC 888.07 -0.06 -0.03 0714/1600
Ames Lincoln Way 10.0 1.62 Non-Flood 0.00 -0.05 0714/1500
Ames S Duff Ave--IFC 871.78 0.02 -0.17 0714/1530

Indian Creek
Mingo 4.14 -0.02 -0.10 0714/1515

Middle Creek
Lacey 75.54 -0.02 -0.10 0714/1500

.Des Moines River Basin...

West Fork Des Moines River
Estherville 10.0 9.58 Non-Flood -0.09 -0.38 0714/1500
Emmetsburg 11.0 9.67 Non-Flood -0.08 -0.46 0714/1515
Humboldt 10.0 10.25 Minor -0.14 -0.40 0714/1515

Pilot Creek
Rolfe 3.30 -0.05 -0.16 0714/1515

East Fork Des Moines River
Algona 17.0 14.40 Non-Flood -0.09 -0.28 0714/1515
Dakota City 20.0 12.98 Non-Flood -0.08 -0.45 0714/1500

Des Moines River
Fort Dodge 10.5 8.61 Non-Flood -0.12 -0.49 0714/1500
Stratford 19.0 13.60 Non-Flood -0.18 -0.67 0714/1500
Des Moines 2nd Ave 23.0 20.49 Non-Flood 0.03 0.02 0714/1515
Des Moines SE 6th St 24.0 20.57 Non-Flood -0.10 -0.11 0714/1500
Swan 58.12 0.16 0.89 0714/1515
Tracy 14.0 5.63 Non-Flood 1.23 1.23 0714/1515
Eddyville 63.0 51.06 Non-Flood 0.02 0.00 0714/1515
Ottumwa 11.5 3.23 Non-Flood -0.29 -0.06 0714/1550

Saylorville Reservoir
Pool 884.0 879.01 Non-Flood -0.16 -0.54 0714/1600
Tail 13.99 -0.04 -0.10 0714/1500
Normal Pool 836.0

Red Rock Reservoir
Pool 780.0 757.44 Non-Flood 0.16 0.92 0714/1615
Tail 689.01 1.20 2.18 0714/1515
Normal Pool 742.0

Lizard Creek
Fort Dodge 5.33 -0.02 -0.06 0714/1515

Boone River
Goldfield 9.86 -0.07 -0.33 0714/1515
Webster City 14.0 4.01 Non-Flood -0.07 -0.37 0714/1500

White Fox Creek
Clarion 84.49 -0.06 -0.28 0714/1445

Bluff Creek (Central Iowa)
Pilot Mound 79.93 -0.06 -0.02 0714/1515

Big Creek Ponding Area
Polk City 36.43 0.02 0.09 0714/1615

Big Creek Lake
Polk City 20.54 -0.28 -0.26 0714/1615

Beaver Creek (Central Iowa)
Woodward 11.24 -0.03 -0.07 0714/1615
Grimes 14.0 3.47 Non-Flood -0.01 -0.06 0714/1515

Fourmile Creek
Ankeny US 69
Ankeny NE 47th St--IFC 906.89 -0.05 -0.08 0714/1545
Ankeny NE 86th Ave 11.0 1.70 Non-Flood -0.01 -0.07 0714/1515
Altoona NE 54th Ave--IFC 823.21 -0.04 -0.09 0714/1600
Altoona I-80
Des Moines Easton Blvd 12.5 3.82 Non-Flood -0.01 -0.05 0714/1530
Pleasant Hill Vandalia Rd- 775.20 -0.06 -0.08 0714/1600

North River
Norwalk Hwy R57 22.0 7.01 Non-Flood -0.05 -0.24 0714/1515

Middle River
Indianola 23.0 7.84 Non-Flood -0.03 -0.13 0714/1515

South River
Ackworth 29.0 5.33 Non-Flood -0.05 -0.11 0714/1515

White Breast Creek
Melcher-Dallas 23.0 6.01 Non-Flood 0.00 0.00 0714/1515

English Creek
Knoxville 21.0 7.95 Non-Flood -0.02 -0.05 0714/1515

Cedar Creek
Bussey 25.0 4.36 Non-Flood -0.01 -0.06 0714/1515

Bear Creek
Ottumwa US 34 79.20 0.00 -0.01 0714/1545

.Raccoon River Basin...

North Raccoon River
Sac City 8.03 -0.02 -0.08 0714/1515
Lanesboro 9.08 -0.04 -0.11 0714/1515
Jefferson 19.0 5.83 Non-Flood -0.01 -0.07 0714/1515
Perry 15.0 5.01 Non-Flood 0.06 -0.08 0714/1615

Black Hawk Lake
Lake View 7.57 -0.01 -0.02 0714/1515

Brushy Fork Creek (Western Iowa)
Templeton 67.15 -0.05 -0.02 0714/1500

Middle Raccoon River Tributary
Carroll 15.76 0.01 -0.05 0714/1515

Middle Raccoon River
Bayard 9.29 -0.01 -0.06 0714/1515
Panora 11.0 4.38 Non-Flood -0.01 0.01 0714/1515

Lake Panorama
Panora 45.69 0.02 0.01 0714/1515

South Raccoon River
Redfield 20.0 2.95 Non-Flood 0.00 -0.07 0714/1445

Raccoon River
Van Meter Hwy R16 17.0 4.00 Non-Flood -0.04 -0.15 0714/1500
West Des Moines 27.99 -0.06 -0.17 0714/1445
Des Moines IA 28 36.0 21.90 Non-Flood -0.03 -0.14 0714/1515
Des Moines Fleur Dr 12.0 3.85 Non-Flood -0.05 -0.13 0714/1445

Walnut Creek (Central Iowa)
Waukee 156th St 9.0
Urbandale 142nd St 1.40 0.00 -0.04 0714/1453
Clive NW 128th St--IFC 861.87 0.09 -0.04 0714/1600
Clive I-80/35 9.0 3.41 Non-Flood 0.00 0.00 0714/1616
Clive NW 100th St--IFC 840.02 0.12 -0.05 0714/1600
Des Moines 63rd St 14.0 3.36 Non-Flood -0.01 -0.06 0714/1445

Little Walnut Creek (Central Iowa)
Clive 156th St--IFC 897.26 0.11 -0.02 0714/1600

North Walnut Creek (Central Iowa)
Urbandale 92nd Dr 2.08 -0.43 -0.34 0714/1627
Urbandale Hickman Rd--IFC 834.08 0.02 -0.06 0714/1545
Windsor Heights College Dr 825.45 -0.04 -0.04 0714/1600

Jordan Creek
West Des Moines

Buttrick Creek
Grand Junction 13.0 5.37 Non-Flood -0.02 -0.13 0714/1615

...Missouri River Basin...

.Nishnabotna River Basin...

East Nishnabotna River
Atlantic 19.0 3.27 Non-Flood -0.01 -0.04 0714/1500

.Chariton River Basin...

West Nodaway River
Massena IA 148 66.60 -0.01 -0.04 0714/1515

East Fork 102 River
Bedford 24.0 11.05 Non-Flood -0.02 -0.06 0714/1445

Thompson River
Davis City 12.0 1.42 Non-Flood -0.03 -0.12 0714/1500

Chariton River
Chariton 19.5 4.02 Non-Flood 0.00 -0.07 0714/1545
Moulton 36.0 18.54 Non-Flood -0.01 -0.04 0714/1545

South Fork Chariton River
Promise City 25.0 2.95 Non-Flood -0.01 -0.02 0714/1545

Rathbun Reservoir
Pool 926.0 905.81 Non-Flood -0.01 -0.02 0714/1545
Tail 2.34 0.00 -0.01 0714/1500
Normal Pool 904.0

Cooper Creek (South Central Iowa)
Centerville 7.70 0.00 -0.09 0714/1530

Key: FS=Flood stage (feet)
Cur Stg=Current stage (feet)
Obs Flood Category=Observed stage flood category (if applicable)--may be
different than forecast flood category
6hr Chg=6-hour change (feet)
24hr Chg=24-hour change (feet)
Obs Time=Date/time observation was taken (local time)

This product is computer generated and is not monitored directly for quality
control. Data sources include the U.S. Geological Survey, U.S. Army Corps of
Engineers, Iowa Flood Center, state agencies and the National Weather
Service.

$$


Central Iowa Observed Snowfall

The following information (mostly PDF files) is to be considered preliminary and unofficial.  Official or certified surface observing information can be obtained from the National Climatic Data Center at https://www.ncdc.noaa.gov.

In the pdf files below, look for the snowfall column, not the snow-depth.

 

Des Moines Airport NWS Office in Johnston Waterloo
(current month updated daily)  (generally updated Monday - Friday) (current month updated daily)
 April 2018  April 2018  April 2018
 March 2018  March 2018  March 2018
 February 2018  February 2018  February 2018
 January 2018  January 2018  January 2018
 December 2017  December 2017  December 2017
 November 2017  November 2017  November 2017
 March 2017  March 2017  March 2017
 February 2017  February 2017  February 2017
 January 2017  January 2017  January 2017
 December 2016  December 2016  December 2016
 November 2016  November 2016  November 2016
 October 2016  October 2016  October 2016
 March 2016  March 2016  March 2016
 February 2016  February 2016  February 2016
 January 2016  January 2016  January 2016
 December 2015  December 2015  December 2015
 November 2015  November 2015  November 2015
 March 2015  March 2015  March 2015
 February 2015  February 2015  February 2015
 January 2015  January 2015  January 2015
 December 2014  December 2014  December 2014
 November 2014  November 2014  November 2014
     
Additional Past Weather Information for Central Iowa can be found by clicking here.

CoCoRAHS Rainfall Reports

    
                        
097
SXUS53 KDMX 141415
LCODMX

COCORAHS PRECIPITATION SUMMARY
NATIONAL WEATHER SERVICE DES MOINES IA
901 AM CDT SUN JUL 14 2024

COCORAHS PRECIPITATION REPORTS FOR THE PREVIOUS 24 HOURS
ENDING AROUND 7 AM LOCAL TIME
THESE REPORTS ARE CONSIDERED SUPPLEMENTAL AND UNOFFICIAL

.B DMX 0714 C DH07/PP/SF/SD/SW
:
:
:CENTRAL IOWA
:
: SNOW SNOW WATER
: PCPN FALL DEPTH EQUIV
:
IA-DC-09 : LEON 4.2 E : 0.27 / MM / MM / MM
IA-LC-17 : RUSSELL 4.4 SSE : 0.16 / MM / MM / MM
IA-MH-08 : NEW SHARON 6.3 SSE : 0.07 / MM / MM / MM
IA-DV-07 : BLOOMFIELD 4.2 WNW : 0.04 / MM / MM / MM
IA-DV-15 : BLOOMFIELD 9.3 WSW : 0.04 / MM / MM / MM
IA-DV-02 : MOULTON 3.6 ENE : 0.03 / MM / MM / MM
IA-CL-09 : OSCEOLA 2.5 N : 0.03 / MM / MM / MM
IA-DV-10 : BLOOMFIELD 8.4 NNE : T / MM / MM / MM
IA-DC-06 : DAVIS CITY 4.6 SE : T / MM / MM / MM
IA-DV-14 : DRAKESVILLE 4.7 WNW : T / MM / MM / MM
IA-MS-07 : MARSHALLTOWN 0.2 WSW : T / MM / MM / MM
IA-WY-10 : ALLERTON 0.8 S : 0.00 / 0.0 / MM / MM
IA-SR-45 : AMES 2.0 WNW : 0.00 / 0.0 / MM / MM
IA-SR-29 : AMES 2.5 W : 0.00 / 0.0 / MM / MM
IA-CS-07 : ANITA 0.6 S : 0.00 / 0.0 / MM / MM
IA-PK-97 : ANKENY 1.5 NNE : 0.00 / 0.0 / 0.0 / MM
IA-DV-03 : BLOOMFIELD 8.6 SSW : 0.00 / 0.0 / MM / MM
IA-WR-27 : CARLISLE 4.5 SSE : 0.00 / 0.0 / MM / MM
IA-BH-10 : CEDAR FALLS 0.6 N : 0.00 / 0.0 / MM / MM
IA-BH-07 : CEDAR FALLS 1.4 SSE : 0.00 / 0.0 / MM / MM
IA-WB-15 : CLARE 5.2 WNW : 0.00 / 0.0 / MM / MM
IA-DL-31 : DALLAS CENTER 1.5 E : 0.00 / 0.0 / MM / MM
IA-PK-131 : DES MOINES 3.7 NW : 0.00 / 0.0 / MM / MM
IA-PK-03 : DES MOINES 4.5 WNW : 0.00 / 0.0 / MM / MM
IA-HD-05 : ELDORA 1.2 ENE : 0.00 / 0.0 / MM / MM
IA-WB-03 : FORT DODGE 1.6 ENE : 0.00 / 0.0 / MM / MM
IA-WB-17 : FORT DODGE 1.7 NNW : 0.00 / 0.0 / MM / MM
IA-SR-19 : GILBERT 0.2 W : 0.00 / 0.0 / MM / MM
IA-PK-21 : JOHNSTON 3.7 NNW : 0.00 / 0.0 / 0.0 / 0.00
IA-BH-29 : LA PORTE CITY 5.1 NNW : 0.00 / 0.0 / MM / MM
IA-DC-08 : LINEVILLE 3.8 W : 0.00 / 0.0 / MM / MM
IA-MR-06 : LOVILIA 0.6 SSE : 0.00 / 0.0 / 0.0 / 0.00
IA-CH-07 : LYTTON 4.0 NE : 0.00 / 0.0 / MM / MM
IA-BN-20 : MADRID 0.5 NE : 0.00 / 0.0 / MM / MM
IA-DV-11 : MILTON 4.8 SSW : 0.00 / 0.0 / MM / MM
IA-CL-03 : MURRAY 0.5 N : 0.00 / 0.0 / 0.0 / 0.00
IA-CL-04 : MURRAY 1.7 W : 0.00 / 0.0 / 0.0 / 0.00
IA-TY-02 : NEW MARKET 4.7 N : 0.00 / 0.0 / MM / MM
IA-AP-09 : NUMA 1.7 W : 0.00 / 0.0 / MM / MM
IA-BN-03 : OGDEN 1.6 SE : 0.00 / 0.0 / MM / MM
IA-CL-02 : OSCEOLA 2.5 WSW : 0.00 / 0.0 / MM / MM
IA-WP-13 : OTTUMWA 2.2 ENE : 0.00 / 0.0 / MM / MM
IA-PK-121 : PLEASANT HILL 3.2 E : 0.00 / 0.0 / MM / MM
IA-BM-08 : READLYN 3.3 SE : 0.00 / 0.0 / MM / MM
IA-CG-14 : ROCKWELL 0.7 NNW : 0.00 / 0.0 / MM / MM
IA-SC-07 : SAC CITY 0.6 SSW : 0.00 / 0.0 / MM / MM
IA-MD-06 : ST CHARLES 1.1 NW : 0.00 / 0.0 / MM / MM
IA-SR-49 : STORY CITY 0.4 NW : 0.00 / 0.0 / MM / MM
IA-CG-07 : SWALEDALE 0.0 WNW : 0.00 / 0.0 / MM / MM
IA-PK-130 : URBANDALE 0.5 ESE : 0.00 / 0.0 / MM / MM
IA-PK-125 : URBANDALE 1.0 NNE : 0.00 / 0.0 / MM / MM
IA-BH-06 : WATERLOO 1.9 SSE : 0.00 / 0.0 / MM / MM
IA-DL-22 : WAUKEE 1.2 ENE : 0.00 / 0.0 / MM / MM
IA-DL-33 : WAUKEE 1.6 N : 0.00 / 0.0 / MM / MM
IA-HM-01 : WEBSTER CITY 0.5 NW : 0.00 / 0.0 / MM / MM
IA-HM-04 : WEBSTER CITY 0.8 SSW : 0.00 / 0.0 / MM / MM
IA-PA-05 : WEST BEND 5.4 W : 0.00 / 0.0 / MM / MM
.END

$$